Regional Weather Roundup
Issued by NWS

Home | Current Version | Previous Version | Graphics & Text | Print | Product List | Glossary On
Versions: 1 2 3 4 5 6 7 8 9 10 11 12 13 14 15 16 17 18 19 20 21 22 23 24 25 26 27 28 29 30 31 32 33 34 35 36 37 38 39 40 41 42 43 44 45 46 47 48 49 50
000
ASUS43 KLOT 280903
RWRIL

ILLINOIS REGIONAL WEATHER ROUNDUP
NATIONAL WEATHER SERVICE CHICAGO/ROMEOVILLE IL
400 AM CDT SAT MAY 28 2016

NOTE: "FAIR" INDICATES FEW OR NO CLOUDS BELOW 12,000 FEET WITH NO
SIGNIFICANT WEATHER AND/OR OBSTRUCTIONS TO VISIBILITY.

* THESE STATIONS ARE NOT UNDER NWS QUALITY CONTROL. THEY ALSO MAY NOT
  REPORT WEATHER SUCH AS PRECIPITATION OR FOG.

ILZ001-002-007-009-015-016-024-281000-
NORTHWEST ILLINOIS

CITY           SKY/WX    TMP DP  RH WIND       PRES   REMARKS
MOLINE         CLOUDY    71  65  81 S13       29.74S
STERLING*      CLOUDY    69  66  90 VRB6      29.79S
$$

ILZ003-004-008-010-011-017-018-281000-
NORTH CENTRAL ILLINOIS

CITY           SKY/WX    TMP DP  RH WIND       PRES   REMARKS
ROCKFORD       CLOUDY    69  65  86 SE13      29.82S
FREEPORT*      CLOUDY    67  65  90 S16G24    29.79F
ROCHELLE*      CLOUDY    68  65  89 S16       29.82R
$$

ILZ005-006-012>014-019>023-281000-
NORTHEAST ILLINOIS

CITY           SKY/WX    TMP DP  RH WIND       PRES   REMARKS
CHICAGO-OHARE  CLOUDY    68  64  87 S8        29.85S
CHICAGO-MIDWAY CLOUDY    71  63  75 SE10      29.85F
AURORA         CLOUDY    71  65  81 S16G23    29.85R
LANSING*       CLOUDY    70  63  79 S10       29.88S
WAUKEGAN       CLOUDY    66  64  93 SE6       29.85S
DUPAGE AIRPORT CLOUDY    68  63  84 S12       29.84S
WHEELING       CLOUDY    68  64  87 SE9       29.86S
NORTHERLY ISL    N/A     60  58  92 SE7         N/A
NORTHERLY ISL    N/A     60  58  92 SE7         N/A
$$

LMZ740>746-281000-
SOUTHERN LAKE MICHIGAN

STATION/POSITION SKY/WX   TEMP    WIND        PRES    VSBY  WAVE
                          AIR SEA DIR/SP/G                  HT/PER
                          (F)     (DEG/KT/KT) (MB)    (MI)  (FT/S)
SOUTHERN BUOY              55 50  150/ 12/ 14 1011.5          1/ 4
WILMETTE HARBOR            59 53  160/  8/ 10   N/A           1/ 3
HARRISON CRIB              67     160/ 14/ 15   N/A
BURNHAM HARBOR             61     130/  6/ 11   N/A
CALUMET HARBOR             70     150/  8/ 11 1011.1F
BURNS HARBOR               71     160/ 10/ 16 1012.5F
MICHIGAN CITY              70     130/  9/ 11   N/A
MICHIGAN CITY 6N           65 58  170/  8/ 10   N/A           1
ST. JOSEPH                 66 61  140/  8/ 10   N/A           1/ 3
$$

ILZ025>027-034>036-040-047-049-050-058-095>099-281000-
WEST-CENTRAL ILLINOIS

CITY           SKY/WX    TMP DP  RH WIND       PRES   REMARKS
QUINCY         CLOUDY    69  66  90 S14       29.78S
MACOMB*        CLOUDY    69  67  94 S10       29.81S
PITTSFIELD*    PTCLDY    69  67  94 S10       29.83R
$$

ILZ028>032-037-038-041>044-048-051>054-059>061-281000-
CENTRAL ILLINOIS

CITY           SKY/WX    TMP DP  RH WIND       PRES   REMARKS
BLOOMINGTON    CLOUDY    69  68  97 S16       29.87R
DECATUR        CLOUDY    71  64  78 S13       29.88R
PEORIA         CLOUDY    70  66  87 S13       29.82R
SPRINGFIELD    PTCLDY    71  65  81 S13       29.85R
TAYLORVILLE    NOT AVBL
$$

ILZ033-039-045-046-055>057-062-063-281000-
EAST-CENTRAL ILLINOIS

CITY           SKY/WX    TMP DP  RH WIND       PRES   REMARKS
CHAMPAIGN      CLOUDY    70  65  84 S17       29.90R
MATTOON        CLOUDY    71  63  75 S10G18    29.91R
$$

ILZ079-100>102-281000-
SOUTHWEST ILLINOIS

CITY           SKY/WX    TMP DP  RH WIND       PRES   REMARKS
CAHOKIA*       CLEAR     68  64  87 CALM      29.87R
SPARTA*        CLOUDY    67  64  90 SE6       29.90S
$$

ILZ064>066-069>071-074>076-080>082-084>086-088>090-092>094-281000-
SOUTH-CENTRAL ILLINOIS

CITY           SKY/WX    TMP DP  RH WIND       PRES   REMARKS
CARBONDALE     CLOUDY    68  64  87 S7        29.91R
MT. VERNON     CLOUDY    70  63  78 S7        29.93R
SALEM*         CLOUDY    71  66  83 S8        29.91R
$$

ILZ067-068-072-073-078-083-087-091-281000-
SOUTHEAST ILLINOIS

CITY           SKY/WX    TMP DP  RH WIND       PRES   REMARKS
LAWRENCEVILLE  CLOUDY    73  66  78 S12       29.94R
FLORA*         CLOUDY    70  67  89 S6        29.94R
HARRISBURG*    CLOUDY    69  66  90 CALM      29.94S
ROBINSON*      CLOUDY    72  65  78 S7        29.94R
$$

ABBREVIATIONS USED IN REMARKS
   TC - TEMPERATURE IN CELSIUS
  WCI - WIND CHILL INDEX
   HX - HEAT INDEX
  VSB - VISIBILITY
$$





USA.gov is the U.S. government's official web portal to all federal, state and local government web resources and services.